Location: Norton
(51.3000°N, 0.8167°E)
Time: 12:50:30
(UTC+00:00)

Cosmos 1271 Rocket - Pass Details

Date: 03 March 2021
Orbit: 498 x 544 km, 81.2° (Epoch: 16 April)

Event Time Altitude Azimuth Distance (km) Brightness Sun altitude
Rises 18:27:57 0° 343° (NNW) 2,604 6.5 -8.1°
Reaches altitude 10° 18:30:07 10° 337° (NNW) 1,715 5.7 -8.5°
Maximum altitude 18:33:44 48° 263° (W) 666 3.8 -9.0°
Drops below altitude 10° 18:37:21 10° 189° (S) 1,709 5.4 -9.6°
Sets 18:39:30 0° 183° (S) 2,593 6.3 -9.9°
